www.pogodaiklimat.ru

Погода и климат >> Архив погоды >> Россия >> Коми >> Ижма


ПОГОДА в Ижме

  • Прогноз погоды в Ижме
  • Монитор погоды в Ижме

АРХИВ ПОГОДЫ в Ижме

Время (UTC), дата Ветер
(напр.,м/с)
 
Видим.   Явления Облачность Т
(С)
Тd
(С)
f
(%)
Тe
(С)
Тes
(С)
Комфортность P
(гПа)
Po
(гПа)
Тmin
(С)
Tmax
(С)
R
(мм)
R24
(мм)
S
(см)
00 14.04 Ю 1 20 км 9/6 960 м
[Sc Ac trans]
-17.6 -19.6 84 -20 -20 1029.9 1024.5
03 14.04 Ю 2 20 км 10/0
[Ci fib]
-10.8 -12.4 88 -15 -14 1028.4 1023.1 -18.7 0.0 71
06 14.04 Ю 4 20 км 10/3 1000 м
[Cb cap Ac und]
-1.9 -10.4 52 -7 -6 1025.2 1020.0
09 14.04 ЮЗ 3
{10}
20 км слаб. ливневой снег 10/8 360 м
[Cb cap Ac und]
+0.7 -2.9 77 -4 -3 1022.7 1017.6
12 14.04 ЮЗ 3 20 км слаб. снег 10/0
[As op]
+1.3 0.0 91 -3 -3 1020.2 1015.2
15 14.04 ЮЗ 4 20 км слаб. снег {дождь} 10/0
[As op]
+1.5 0.0 90 -4 -4 1017.3 1012.2 +2.0 1
18 14.04 З 3 10 км слаб. снег {дождь} 10/10 270 м
[Frnb Ns]
+1.0 +0.2 94 -4 -4 1014.5 1009.5
21 14.04 З 3 20 км слаб. снег 10/10 240 м
[Frnb Ns]
+0.8 -0.2 93 -4 -4 1011.0 1006.0
00 15.04 З 4 20 км слаб. снег 10/8 300 м
[Frnb As op]
+0.6 -0.3 94 -5 -5 1008.5 1003.5
03 15.04 СЗ 3 20 км {снег, дождь} 10/8 300 м
[Frnb As op]
+0.7 -0.8 90 -4 -4 1008.0 1003.0 +0.5 5 70
06 15.04 С 4 20 км слаб. ливневой снег 10/6 300 м
[Cb cap Ci ing]
+0.2 0.0 99 -5 -4 1009.6 1004.6
09 15.04 С 5
{10}
20 км {ливн. осадки} 8/5 300 м
[Cb cap Ac trans Ci fib]
+1.5 -4.6 64 -4 -2 1011.3 1006.3
12 15.04 С 4 20 км {ливн. осадки} 6/4 600 м
[Cb cap Ci fib]
+0.4 -5.8 63 -5 -3 1012.6 1007.6
15 15.04 С 2 20 км 10/0
[Ac As]
-1.5 -6.2 70 -5 -5 1012.8 1007.8 +1.8 0.0
18 15.04 СВ 2 20 км 10/0
[Ac As]
-3.7 -6.3 82 -8 -8 1012.9 1007.8
21 15.04 СВ 4
{10}
20 км позёмок 10/0
[Ac As]
-6.9 -12.3 65 -13 -13 1015.5 1010.4
00 16.04 С 4 20 км {метель} 10/0
[Ac As]
-10.7 -16.0 65 -18 -18 1019.3 1014.0
03 16.04 С 4
{11}
20 км позёмок 6/6 1000 м
[Cb cap]
-11.3 -16.4 66 -18 -18 1023.0 1017.7 -11.5 70
06 16.04 С 4
{12}
20 км {метель} 6/6 600 м
[Cb cap]
-10.6 -17.3 58 -18 -16 1026.8 1021.5 -11.7
09 16.04 С 6-13
{13}
20 км 4/4 1000 м
[Cu hum]
-8.3 -17.4 48 -16 -14 1030.3 1025.0
12 16.04 С 5
{13}
20 км 1/1 1000 м
[Cu hum]
-7.2 -16.1 49 -14 -12 1033.0 1027.8
15 16.04 С 4
{12}
20 км ясно -8.1 -16.0 53 -15 -14 1034.7 1029.4 -6.8
18 16.04 С 1 20 км ясно -15.9 -18.6 80 -19 -19 1036.3 1030.8
21 16.04 З 1 20 км ясно -20.1 -22.2 83 -23 -23 1037.1 1031.5
00 17.04 Ю 2 20 км 3/0
[Ci fib]
-20.9 -23.0 83 -27 -27 1036.7 1031.1
03 17.04 Ю 1 20 км 9/0
[Ci fib]
-16.2 -18.6 82 -19 -18 1035.9 1030.5 -22.5 70
06 17.04 ЮЗ 1 20 км 6/0
[Cc]
-6.3 -15.1 50 -8 -2 1034.3 1029.1
09 17.04 З 2 20 км 4/0
[Ac lent Cc]
-1.1 -14.9 34 -4 +2 1031.3 1026.2
12 17.04 З 2 20 км 10/10 1080 м
[Sc]
+0.5 -8.9 49 -2 -2 1029.1 1024.0
15 17.04 З 2 20 км 10/4 1000 м
[Sc Ac trans Cs]
+0.2 -6.6 60 -3 -3 1026.6 1021.5 +0.7
18 17.04 З 2 20 км слаб. снег 10/5 600 м
[Sc As op]
-1.1 -4.2 79 -5 -5 1025.2 1020.1
21 17.04 З 2 20 км {снег} 10/0
[Cs]
-1.8 -3.7 87 -6 -6 1023.4 1018.3
00 18.04 З 2 20 км слаб. снег 10/0
[As op]
-1.4 -2.8 90 -5 -5 1021.9 1016.8
03 18.04 З 2 20 км {снег} 10/10 400 м
[Sc]
-0.6 -3.1 83 -4 -4 1021.0 1015.9 -2.0 0.2 70
06 18.04 З 2 20 км слаб. ливневой снег 10/10 360 м
[Cb cap]
+0.5 -2.0 83 -3 -3 1020.6 1015.6
09 18.04 З 3 20 км {ливн. осадки} 10/10 480 м
[Cb cap]
+2.5 -0.9 78 -2 -2 1021.7 1016.7
12 18.04 СЗ 3 20 км {ливн. осадки} 10/6 1000 м
[Cb cap Ac und]
+3.2 -0.7 76 -1 -0 1022.7 1017.7
15 18.04 З 3 20 км {ливн. осадки} 10/6 1000 м
[Cb cap Ac und]
+1.9 -0.2 86 -2 -2 1022.9 1017.8 +3.6 0.4
18 18.04 СЗ 3 20 км {ливн. осадки} 10/10 1230 м
[Cb cap]
+1.7 -2.1 76 -2 -2 1022.6 1017.5
21 18.04 З 3 20 км 10/10 750 м
[Sc]
+0.7 -2.1 82 -4 -4 1021.7 1016.6
00 19.04 СЗ 3 20 км 10/10 270 м
[Frnb]
+0.8 0.0 94 -4 -4 1020.8 1015.7
03 19.04 СЗ 2 20 км 10/8 240 м
[Frnb As op]
+0.9 -0.1 93 -3 -3 1020.7 1015.6 +0.6 68
06 19.04 СЗ 3 20 км {снег} 10/10 240 м
[Frnb]
+1.9 +0.5 90 -2 -2 1021.1 1016.1
09 19.04 СЗ 3 20 км 10/10 420 м
[Sc]
+3.2 +0.8 84 -1 -1 1021.5 1016.5
12 19.04 СЗ 4 20 км {дождь} 10/10 500 м
[Sc]
+3.0 0.0 81 -2 -2 1022.1 1017.0
15 19.04 СЗ 3 20 км слаб. дождь 10/10 240 м
[Frnb]
+1.9 +0.4 90 -2 -2 1022.2 1017.2 +3.5 0.0
18 19.04 СЗ 1 20 км {дождь} 10/10 270 м
[Frnb]
+1.4 +0.3 92 -1 -1 1022.5 1017.4
21 19.04 СЗ 2 20 км 10/10 300 м
[Frnb]
+1.3 +0.1 92 -2 -2 1022.9 1017.8
00 20.04 СЗ 1 20 км 10/10 420 м
[Frnb]
+1.2 0.0 92 -1 -1 1023.1 1018.0
03 20.04 СЗ 2 20 км 10/10 630 м
[Sc]
+1.3 -0.5 88 -2 -2 1023.8 1018.7 +1.0 0.0 64
06 20.04 СЗ 2 20 км 10/3 600 м
[Sc Ac As]
+2.8 -1.3 74 -0 +1 1023.9 1018.9
09 20.04 СЗ 3 20 км 10/4 600 м
[Sc As op]
+3.8 -2.3 64 0 +1 1024.2 1019.2
12 20.04 З 2 20 км 10/0
[Ac As]
+3.6 -2.6 64 +1 +2 1024.0 1019.0
15 20.04 СЗ 4 20 км 10/10 1080 м
[Sc]
+2.7 -3.5 64 -2 -2 1023.1 1018.0 +3.9
18 20.04 З 2 20 км 10/10 1140 м
[Sc]
+1.6 -3.2 70 -1 -1 1021.6 1016.6
21 20.04 З 2 20 км 10/10 1200 м
[Sc]
+1.6 -3.4 69 -1 -1 1019.7 1014.7

 

Местоположение метеостанции Ижма (Коми, Россия): широта 65.00 долгота 53.92 высота над уровнем моря 40 м.

В архиве по умолчанию представлена погода в Ижме за последнюю неделю. Архивные данные за месяц целиком и за предыдущие месяцы, начиная с января 2011 года, Вы можете получить, выбрав интересующий диапазон дат из раскрывающегося списка и нажав кнопку "Ввод!".


*Определитесь, кто Вы:
робот инопланетянин человек

Внимание! Время в таблицах - всемирное. Для получения местного времени необходимо прибавить поправку, которая равна 3 ч.

Смотрите также архив погоды в соседних городах и на ближайших метеорологических станциях:

Погода в Ираеле (Коми, Россия) (88 км)
Погода в Кедва-Воме (Коми, Россия) (88 км)
Погода в Усть-Цильме (Коми, Россия) (91 км)
Погода в Мутном Материке (Коми, Россия) (120 км)
Погода в Печоре (Коми, Россия) (150 км)
Погода в Окуневом Носу (Коми, Россия) (152 км)
Погода в Ухте (Коми, Россия) (161 км)
Погода в Усть-Усе (Коми, Россия) (175 км)
Погода в Усть-Щугоре (Коми, Россия) (194 км)
Погода в Усинске (Коми, Россия) (196 км)

Пояснения к столбцам:

Ветер - указаны скорость ветра в м/с - средняя за 10 мин, порывы в срок и между сроками (в фигурных скобках) и направление, откуда дует ветер: С - северный, СВ - северо-восточный, В - восточный, ЮВ - юго-восточный, Ю - южный, ЮЗ - юго-западный, З - западный, СЗ - северо-западный.
Видимость - горизонтальная дальность видимости в метрах или километрах. При видимости от 1 до 10 км при отсутствии осадков обычно наблюдается дымка, при ухудшении видимости до 1 км и менее - туман. В сухую погоду видимость может ухудшаться дымом, пылью или мглою.
Явления - указаны атмосферные явления, наблюдавшиеся в срок или в последний час перед сроком; фигурными скобками обозначены явления, наблюдавшиеся между сроками (за 1-3 часа до срока); квадратными скобками обозначены град или гололедные отложения с указанием их диаметра в мм.
Облачность - указаны через наклонную черту общая и нижняя облачность в баллах и высота нижней границы облаков в метрах; квадратными скобками обозначены формы облаков: Ci - перистые, Cs - перисто-слоистые, Cc - перисто-кучевые, Ac - высококучевые, As - высокослоистые, Sc - слоисто-кучевые, Ns - слоисто-дождевые, Cu - кучевые, Cb - кучево-дождевые. Подробнее классификацию облаков см. в Атласе облаков (PDF).
T - Температура воздуха - температура, измеренная на высоте 2 м над землей.
Td - Температура точки росы - температура, при понижении до которой содержащийся в воздухе водяной пар достигнет насыщения.
f - Относительная влажность воздуха - влажноcть воздуха, измеренная на высоте 2 м над землей.
Te - Эффективная температура - температура, которую ощущает одетый по сезону человек в тени. Характеристика душности погоды. При расчете учитывается влияние влажности воздуха и скорости ветра на теплоощущения человека.
Tes - Эффективная температура на солнце - температура, которую ощущает человек, с поправкой на солнечный нагрев. Характеристика знойности погоды. Зависит от высоты солнца над горизонтом, облачности и скорости ветра. Ночью, в пасмурную погоду, а также при ветре 12 м/с и более поправка равна нулю.
P - Атмосферное давление - приведенное к уровню моря атмосферное давление.
Po - Атмосферное давление - измеренное на уровне метеостанции атмосферное давление.
Tmin - Минимальная температура - минимум температуры воздуха на высоте 2 м над землей.
Tmax - Максимальная температура - максимум температуры воздуха на высоте 2 м над землей.
R - Количество осадков - Количество выпавших осадков за период времени, мм. При наведении курсора мыши на число - период времени, за который выпало указанное количество осадков.
R24 - Количество осадков - Количество выпавших осадков за 24 часа, мм.
S - Снежный покров - Высота снежного покрова, см. При наведении курсора мыши на число - состояние снежного покрова и степень покрытия местности в баллах.